Probability
0 0 0 0 0 0 0 0 0 0 0 1 3 5 7 12 26 41 49 52 50 39 25 15 11 10 7 4 4 5 6 7 10 16 19 17 15 10 6 6 6 3 0 0
0 0 0 0 0 0 0 0 0 0 0 0 1 2 3 7 17 30 40 43 38 28 17 9 6 5 4 3 2 2 2 3 5 9 12 11 9 6 3 3 2 1 0 0
0 0 0 0 0 0 0 0 0 0 0 0 0 0 0 2 7 17 24 25 20 13 7 3 1 1 1 1 1 0 0 0 1 3 5 6 4 2 1 0 0 0 0 0
0 0 0 0 0 0 0 0 0 0 0 0 0 0 0 1 3 7 10 10 8 4 2 0 0 0 1 1 0 0 0 0 0 1 3 4 3 1 0 0 0 0 0 0
0 0 0 0 0 0 0 0 0 0 0 0 0 0 0 1 1 2 3 3 2 1 0 0 0 0 0 0 0 0 0 0 0 1 2 2 2 1 1 1 1 0 0 1
0 0 0 0 0 0 0 0 0 0 0 0 0 0 0 0 0 0 0 0 0 0 0 0 0 0 0 0 0 0 0 0 0 0 0 0 0 1 1 2 1 0 1 2
0 0 0 0 0 0 0 0 0 0 0 0 0 0 0 0 0 0 0 0 0 0 0 0 0 0 0 0 0 0 0 0 0 0 0 0 0 0 1 1 1 0 1 2
0 0 0 0 0 0 0 0 0 0 0 0 0 0 0 0 0 0 0 0 0 0 0 0 0 0 0 0 0 0 0 0 0 0 0 0 0 0 0 0 0 0 0 1
0 0 0 0 0 0 0 0 0 0 0 0 0 0 0 0 0 0 0 0 0 0 0 0 0 0 0 0 0 0 0 0 0 0 0 0 0 0 0 0 0 0 0 0
0 0 0 0 0 0 0 0 0 0 0 0 0 0 0 0 0 0 0 0 0 0 0 0 0 0 0 0 0 0 0 0 0 0 0 0 0 0 0 0 0 0 0 0
0 0 0 0 0 0 0 0 0 0 0 0 0 0 0 0 0 0 0 0 0 0 0 0 0 0 0 0 0 0 0 0 0 0 0 0 0 0 0 0 0 0 0 0
0 0 0 0 0 0 0 0 0 0 0 0 0 0 0 0 0 0 0 0 0 0 0 0 0 0 0 0 0 0 0 0 0 0 0 0 0 0 0 0 0 0 0 0
0 0 0 0 0 0 0 0 0 0 0 0 0 0 0 0 0 0 0 0 0 0 0 0 0 0 0 0 0 0 0 0 0 0 0 0 0 0 0 0 0 0 0 0
0 0 0 0 0 0 0 0 0 0 0 0 0 0 0 0 0 0 0 0 0 0 0 0 0 0 0 0 0 0 0 0 0 0 0 0 0 0 0 0 0 0 0 0
0 0 0 0 0 0 0 0 0 0 0 0 0 0 0 0 0 0 0 0 0 0 0 0 0 0 0 0 0 0 0 0 0 0 0 0 0 0 0 0 0 0 0 0
0 0 0 0 0 0 0 0 0 0 0 0 0 0 0 0 0 0 0 0 0 0 0 0 0 0 0 0 0 0 0 0 0 0 0 0 0 0 0 0 0 0 0 0
0 0 0 0 0 0 0 0 0 0 0 0 0 0 0 0 0 0 0 0 0 0 0 0 0 0 0 0 0 0 0 0 0 0 0 0 0 0 0 0 0 0 0 0
0 0 0 0 0 0 0 0 0 0 0 0 0 0 0 0 0 0 0 0 0 0 0 0 0 0 0 0 0 0 0 0 0 0 0 0 0 0 0 0 0 0 0 0
0 0 0 0 0 0 0 0 0 0 0 0 0 0 0 0 0 0 0 0 0 0 0 0 0 0 0 0 0 0 0 0 0 0 0 0 0 0 0 0 0 0 0 0
0 0 0 0 0 0 0 0 0 0 0 0 0 0 0 0 0 0 0 0 0 0 0 0 0 0 0 0 0 0 0 0 0 0 0 0 0 0 0 0 0 0 0 0
0 0 0 0 0 0 0 0 0 0 0 0 0 0 0 0 0 0 0 0 0 0 0 0 0 0 0 0 0 0 0 0 0 0 0 0 0 0 0 0 0 0 0 0
0 0 0 0 0 0 0 0 0 0 0 0 0 0 0 0 0 0 0 0 0 0 0 0 0 0 0 0 0 0 0 0 0 0 0 0 0 0 0 0 0 0 0 0
0 0 0 0 0 0 0 0 0 0 0 0 0 0 0 0 0 0 0 0 0 0 0 0 0 0 0 0 0 0 0 0 0 0 0 0 0 0 0 0 0 0 0 0
0 0 0 0 0 0 0 0 0 0 0 0 0 0 0 0 0 0 0 0 0 0 0 0 0 0 0 0 0 0 0 0 0 0 0 0 0 0 0 0 0 0 0 0
0 0 0 0 0 0 0 0 0 0 0 0 0 0 0 0 0 0 0 0 0 0 0 0 0 0 0 0 0 0 0 0 0 0 0 0 0 0 0 0 0 0 0 0
0 0 0 0 0 0 0 0 0 0 0 0 0 0 0 0 0 0 0 0 0 0 0 0 0 0 0 0 0 0 0 0 0 0 0 0 0 0 0 0 0 0 0 0
Wind_Speed
2 2 5 9 8 8 5 3 3 4 6 10 15 16 19 19 20 17 14 13 13 12 9 9 8 7 7 7 6 7 6 8 6 4 3 1 1 1 1 3 5 5 5 6
2 5 11 8 5 5 3 3 3 4 7 8 14 16 17 21 21 18 16 14 12 9 9 9 8 6 6 5 4 6 5 4 3 4 3 1 2 2 2 3 3 5 6 6
6 4 5 5 6 5 4 2 3 3 5 7 7 9 13 15 17 18 17 14 11 10 9 8 8 7 7 8 8 8 6 5 4 5 2 2 1 1 1 1 2 4 6 7
4 7 10 9 6 2 4 4 2 3 4 3 3 3 5 7 14 15 13 11 10 9 8 8 8 9 9 8 8 8 6 7 7 6 5 3 2 2 2 2 2 4 5 6
5 5 7 7 5 3 3 3 3 2 1 1 3 5 0 4 9 10 8 8 7 6 6 7 8 8 8 7 7 6 6 7 8 8 8 6 5 3 3 2 2 2 3 4
3 4 3 4 5 1 1 6 8 7 6 3 3 3 1 3 3 4 5 5 4 4 5 6 6 6 5 5 5 5 5 6 7 7 8 8 7 6 6 5 4 4 3 3
7 7 5 3 3 5 5 7 6 7 6 3 1 4 2 4 5 5 5 4 3 3 2 3 3 3 3 3 3 3 4 4 5 5 5 5 6 6 6 6 5 4 3 3
2 6 6 3 3 4 2 8 6 3 4 2 2 1 3 4 4 4 3 4 3 2 2 2 2 2 2 2 1 1 1 2 3 3 3 3 3 3 3 4 4 4 4 4
5 7 7 6 5 2 1 1 5 6 0 1 1 1 2 4 5 4 4 3 3 3 2 2 2 3 4 4 4 3 2 2 2 2 3 3 3 3 4 5 4 4 4 5
5 4 6 6 6 6 2 2 6 4 2 2 1 3 4 7 7 6 4 3 3 2 2 3 4 4 5 5 5 4 4 4 5 5 5 4 4 5 5 4 5 5 5 5
3 2 7 7 4 3 4 4 4 3 4 3 2 4 4 7 6 4 3 2 1 2 4 5 6 5 5 4 4 4 5 6 6 7 7 6 6 6 6 5 6 5 5 5
3 5 3 5 5 2 3 1 4 3 2 2 1 5 3 2 2 2 2 2 3 4 6 7 6 5 4 4 5 6 7 7 8 8 8 8 8 7 7 7 8 7 6 6
3 6 5 10 11 9 7 6 4 5 4 3 2 5 5 4 4 3 3 5 6 7 7 6 5 4 4 6 7 8 8 9 9 9 9 9 9 9 9 9 9 8 7 7
5 5 4 2 6 4 4 7 7 6 4 2 1 2 6 6 5 5 6 7 8 8 6 5 5 6 7 8 8 9 9 9 10 9 9 10 10 10 10 10 9 9 9 8
6 4 3 3 2 7 8 8 9 8 4 2 2 1 3 5 4 6 7 9 9 7 7 8 8 8 9 9 9 9 10 10 10 9 10 11 11 10 9 9 9 10 10 11
5 4 5 5 5 9 9 10 8 6 5 3 2 1 3 5 5 7 9 11 9 9 10 11 11 11 11 11 11 11 11 11 10 10 11 11 10 9 9 9 9 9 9 10
3 4 4 5 6 3 6 5 5 4 4 3 2 3 6 7 8 8 10 9 9 12 13 13 12 12 12 12 12 12 12 11 10 11 11 11 10 10 10 9 8 8 9 9
4 3 3 2 6 3 3 1 4 4 4 3 1 5 6 7 9 8 9 9 11 13 13 13 12 12 12 12 12 12 12 11 11 11 11 10 9 9 9 8 8 8 7 7
4 5 3 2 2 2 0 2 2 1 2 2 3 6 7 8 6 6 9 9 12 14 14 13 12 14 12 12 13 13 13 12 11 11 11 9 9 9 8 9 9 8 7 7
5 6 5 3 1 3 2 3 3 1 2 2 5 7 8 8 8 8 9 11 12 12 11 11 11 11 12 13 13 14 14 14 14 13 12 11 9 9 9 9 8 7 7 7
4 5 4 2 2 3 3 4 4 3 7 6 5 6 6 6 8 11 13 11 11 11 11 11 12 12 13 14 13 14 15 15 14 13 13 12 11 10 9 9 8 7 7 6
4 3 1 1 1 5 3 3 3 4 5 5 5 5 7 8 10 10 11 11 12 11 12 12 12 13 13 14 14 16 16 15 14 13 13 12 10 10 10 7 7 6 6 6
4 7 6 6 6 5 2 4 4 4 3 4 5 7 7 8 9 10 9 10 11 12 13 13 15 16 16 15 14 17 17 15 14 13 12 11 10 9 8 7 7 6 5 5
2 3 4 2 2 4 3 2 1 1 2 4 5 6 7 7 9 10 9 10 12 12 13 14 17 18 18 17 16 15 16 15 13 13 11 9 8 7 7 6 6 6 5 5
6 4 3 2 1 1 2 2 2 2 3 5 6 6 7 8 8 8 9 11 11 12 13 14 16 17 18 18 17 16 14 13 12 11 9 7 6 6 6 5 5 6 6 6
1 5 6 5 5 4 4 3 2 3 4 5 6 7 7 6 7 8 10 10 11 14 14 15 16 17 17 17 17 15 13 12 10 9 7 5 4 4 4 4 4 5 6 8
Wind_Direction
308 108 243 246 214 221 260 293 321 323 350 56 67 59 46 45 49 45 44 52 66 67 59 50 50 52 53 61 72 70 40 346 337 340 309 323 293 285 243 215 193 184 180 170
335 248 240 252 298 318 331 3 349 338 7 61 77 70 61 53 54 51 48 51 54 48 42 40 40 43 42 45 71 81 57 359 325 299 282 269 261 253 241 225 200 191 180 171
205 258 315 319 316 330 339 7 348 345 16 38 93 61 58 58 61 57 52 47 42 44 43 44 51 50 52 47 37 40 30 20 342 323 323 327 343 346 357 289 226 213 192 177
4 349 351 338 315 350 312 303 342 351 34 348 60 95 51 59 59 55 51 47 42 39 42 45 51 50 48 47 45 39 25 17 1 2 14 22 11 330 297 277 255 237 208 190
329 333 335 320 300 338 273 311 5 0 84 34 23 104 55 40 53 58 58 57 51 44 49 51 51 51 48 44 43 32 25 21 12 17 23 24 15 340 321 329 318 282 246 223
293 279 257 270 295 304 36 33 29 39 55 21 326 115 13 44 75 86 83 81 81 68 58 57 54 53 47 42 45 42 32 21 13 20 26 23 16 360 355 351 342 325 307 283
328 316 298 271 309 337 51 65 24 1 8 290 309 97 157 140 144 134 140 151 141 113 101 90 77 66 56 46 36 33 36 19 10 16 19 15 9 3 358 345 334 331 325 314
303 303 292 290 233 221 258 129 145 204 241 266 359 125 188 177 182 164 162 155 150 152 150 134 143 159 176 174 162 100 37 359 350 0 354 350 350 344 329 327 324 322 315 304
197 266 291 297 303 144 322 273 170 147 98 89 220 148 253 212 208 200 190 159 151 159 160 171 196 206 210 207 204 197 199 260 286 291 295 299 306 307 303 304 305 306 309 316
174 253 304 325 13 13 125 126 63 70 69 328 267 222 217 205 219 212 196 181 181 188 208 227 233 230 221 209 208 209 213 232 249 255 256 258 259 266 273 285 294 297 299 309
102 78 323 356 14 344 12 35 84 100 141 143 283 272 224 204 207 191 181 173 200 257 265 263 258 245 228 211 204 210 224 233 244 247 247 248 250 251 255 261 267 273 281 294
44 94 339 304 299 0 43 28 120 120 324 104 144 280 305 180 143 110 66 5 311 296 287 282 281 274 262 247 240 234 235 236 241 243 246 248 249 249 251 254 258 261 266 273
71 78 24 348 345 359 23 20 64 107 89 65 57 308 5 43 51 39 9 330 311 304 304 306 310 293 271 258 251 246 243 241 243 241 242 248 252 251 251 252 255 256 257 263
94 81 127 208 264 300 40 45 51 77 79 37 40 319 357 2 359 347 336 320 310 308 312 314 301 278 266 258 251 248 246 244 243 240 238 241 244 245 246 248 249 250 249 251
78 56 341 298 5 76 71 56 61 71 77 87 326 102 341 335 328 318 313 311 311 312 310 302 291 279 272 267 261 254 249 246 242 239 238 238 240 240 242 244 246 247 247 248
68 54 17 357 70 93 68 45 44 47 37 21 45 82 310 311 320 319 316 315 311 306 305 301 294 287 281 274 269 263 256 252 244 238 236 234 232 233 234 236 240 243 246 248
64 68 42 331 323 71 28 22 45 39 33 62 52 295 304 316 316 306 305 304 299 302 303 300 295 287 284 281 278 275 270 263 252 242 238 232 227 226 228 232 234 235 240 242
125 94 102 353 16 14 242 85 77 99 100 71 351 291 295 293 289 284 290 294 298 299 299 297 294 293 292 290 292 290 287 279 268 259 251 242 231 227 226 226 229 233 234 233
133 127 93 76 352 241 290 10 11 287 190 56 338 319 312 301 301 287 278 286 291 294 297 299 301 304 306 307 307 307 302 296 290 283 270 257 245 238 231 226 228 229 230 233
55 83 93 67 338 265 246 313 300 332 258 325 351 325 313 329 329 297 295 297 296 298 302 308 311 311 311 310 310 307 302 297 291 286 280 270 258 250 243 237 232 228 226 231
28 39 64 53 285 276 284 318 39 60 276 296 306 305 308 305 277 288 304 307 308 309 312 313 313 313 311 312 311 306 302 297 294 291 285 274 261 251 246 242 236 231 230 231
136 118 120 98 332 273 314 49 81 237 255 283 292 294 295 289 289 298 306 311 317 318 317 319 318 316 315 314 312 307 303 299 296 292 285 279 270 263 263 246 237 230 224 226
154 176 178 178 208 222 126 140 193 212 258 280 289 296 297 303 304 311 313 318 318 318 320 322 322 320 319 316 312 307 304 302 298 293 286 278 271 263 257 250 243 235 223 222
247 164 124 132 157 161 146 151 221 265 299 301 302 304 312 311 313 318 319 320 322 324 324 327 327 325 323 321 316 307 306 306 301 296 292 285 275 267 258 249 239 231 223 218
208 152 125 161 175 163 337 338 344 3 348 331 322 315 319 320 320 321 322 324 325 327 329 329 327 324 322 321 319 316 314 313 309 305 298 291 281 274 266 254 240 229 221 209
201 152 153 209 218 190 251 278 22 21 342 327 327 325 325 326 322 325 324 324 326 329 330 328 326 324 323 323 322 321 319 317 314 311 304 294 287 281 274 270 272 252 238 230